This demonstration page uses our WeatherBlox Daily Observations layout. Learn more.

Left ArrowRight Arrow

Hourly Observations for July 14, 2015

Temp ( °F °C ) Dew Point ( °F °C ) Humidity (%) Winds ( mph kmh ) Pressure ( in mb ) Visibility ( mi km ) Precip ( " mm )
12:10 am 00:10 Mostly Cloudy with Nearby Thunderstorms 73 22.8 71 21.7 94 94 N N/A 29.71 1006 7 11 0.02 0.51
12:19 am 00:19 Mostly Cloudy with Light Rain 73 22.8 71 21.7 94 94 N N/A 29.71 1006 10 16 0.02 0.51
12:30 am 00:30 Cloudy with Light Rain 73 22.8 71 21.7 94 94 N 12 19 29.74 1007 10 16 0.02 0.51
12:53 am 00:53 Cloudy with Light Rain 73 22.8 69 20.6 87 87 N 12 19 29.75 1008 10 16 0.03 0.76
1:11 am 01:11 Partly Cloudy with Light Rain 72 22.2 68 20 87 87 N 5 7 29.74 1007 10 16 0.02 0.51
1:53 am 01:53 Mostly Clear with Light Rain 70 21.1 68 20 93 93 SE 6 9 29.69 1005 10 16 0.05 1.27
2:53 am 02:53 Mostly Clear with Light Rain 70 21.1 69 20.6 97 97 N N/A 29.67 1005 9 14 N/A
3:53 am 03:53 Clear with Mist and Fog 71 21.7 70 21.1 96 96 N N/A 29.64 1004 6 10 N/A
4:53 am 04:53 Mostly Clear 72 22.2 70 21.1 94 94 SSW 3 6 29.64 1004 10 16 N/A
5:53 am 05:53 Clear 70 21.1 68 20 93 93 SSW 3 6 29.65 1004 10 16 N/A
6:53 am 06:53 Sunny 69 20.6 67 19.4 93 93 N N/A 29.65 1004 9 14 N/A
7:31 am 07:31 Partly Cloudy 71 21.7 68 20 90 90 VRB 3 6 29.68 1005 10 16 0.01 0.25
7:53 am 07:53 Mostly Cloudy with Light Rain 72 22.2 69 20.6 91 91 VRB 6 9 29.65 1004 10 16 0.01 0.25
8:01 am 08:01 Partly Cloudy 72 22.2 69 20.6 91 91 WSW 5 7 29.65 1004 10 16 N/A
8:53 am 08:53 Sunny 74 23.3 70 21.1 88 88 WSW 5 7 29.63 1004 10 16 N/A
9:53 am 09:53 Mostly Sunny 79 26.1 72 22.2 79 79 VRB 5 7 29.63 1003 10 16 N/A
10:53 am 10:53 Mostly Sunny 83 28.3 75 23.9 77 77 VRB 6 9 29.64 1004 10 16 N/A
11:53 am 11:53 Sunny 85 29.4 76 24.4 75 75 SW 8 13 29.62 1003 10 16 N/A
12:53 pm 12:53 Sunny 87 30.6 75 23.9 67 67 WSW 12 19 29.60 1002 10 16 N/A
1:53 pm 13:53 Sunny 89 31.7 72 22.2 57 57 WSW 9 15 29.59 1002 10 16 N/A
2:53 pm 14:53 Partly Cloudy with Nearby Thunderstorms 89 31.7 71 21.7 55 55 W 13 20 29.54 1001 10 16 N/A
3:19 pm 15:19 Mostly Cloudy with Thunderstorms 85 29.4 70 21.1 61 61 W 15 24 29.53 1000 10 16 N/A
3:53 pm 15:53 Mostly Cloudy 80 26.7 73 22.8 79 79 NW 16 26 29.57 1002 10 16 0.01 0.25
4:53 pm 16:53 Sunny 87 30.6 68 20 53 53 WNW 20 31 29.57 1001 10 16 N/A
5:53 pm 17:53 Mostly Cloudy 80 26.7 68 20 67 67 NW 15 24 29.60 1003 10 16 N/A
6:53 pm 18:53 Sunny 82 27.8 66 18.9 58 58 NW 18 30 29.60 1002 10 16 N/A
7:53 pm 19:53 Sunny 80 26.7 63 17.2 56 56 NNW 14 22 29.62 1003 10 16 N/A
8:53 pm 20:53 Sunny 76 24.4 63 17.2 64 64 NNW 8 13 29.67 1005 10 16 N/A
9:53 pm 21:53 Mostly Clear 75 23.9 63 17.2 66 66 NW 13 20 29.71 1006 10 16 N/A
10:53 pm 22:53 Clear 73 22.8 63 17.2 71 71 NW 8 13 29.72 1007 10 16 N/A
11:53 pm 23:53 Clear 71 21.7 63 17.2 76 76 NNW 10 17 29.74 1007 10 16 N/A

Powered by AerisWeather